JLY1207 SAAR-SBGR

Flight info

Callsign JLY1207
Flight time N/A
Altitude 37000
Route DABOT DCT PAR UT682 PULEN UM400 UBMOP DCT PUNTO DCT XONUG UZ121 BUXUK
Aircraft B737/M-SDFGIKRWY/LB1

Departure

Time 2026-05-07 12:03
Airport Rosario Islas Malvinas International Airport (SAAR)

Arrival

Time N/A
Airport São Paulo/Guarulhos–Governor André Franco Montoro International Airport (SBGR)
Time Latitude Longitude Altitude Speed Heading
2026-05-07 11:37 -32.91457 -60.78045 91 ft 0 kts 111°
2026-05-07 11:50 -32.91454 -60.78054 91 ft 2 kts 111°
2026-05-07 11:50 -32.91449 -60.78070 91 ft 2 kts 111°
2026-05-07 11:51 -32.91443 -60.78086 91 ft 2 kts 111°
2026-05-07 11:51 -32.91437 -60.78103 91 ft 2 kts 111°
2026-05-07 11:51 -32.91434 -60.78114 91 ft 2 kts 111°
2026-05-07 11:51 -32.91431 -60.78131 91 ft 2 kts 86°
2026-05-07 11:52 -32.91434 -60.78148 91 ft 2 kts 67°
2026-05-07 11:52 -32.91442 -60.78163 91 ft 2 kts 47°
2026-05-07 11:52 -32.91453 -60.78174 91 ft 1 kts 26°
2026-05-07 11:52 -32.91460 -60.78177 91 ft 1 kts 18°
2026-05-07 11:53 -32.91462 -60.78178 91 ft 0 kts 20°
2026-05-07 11:57 -32.91450 -60.78173 91 ft 3 kts 20°
2026-05-07 11:57 -32.91412 -60.78174 91 ft 8 kts 330°
2026-05-07 11:57 -32.91353 -60.78226 91 ft 11 kts 322°
2026-05-07 11:57 -32.91286 -60.78290 92 ft 12 kts 322°
2026-05-07 11:58 -32.91213 -60.78357 93 ft 13 kts 322°
2026-05-07 11:58 -32.91134 -60.78432 93 ft 15 kts 322°
2026-05-07 11:58 -32.91042 -60.78500 94 ft 16 kts 336°
2026-05-07 11:58 -32.90936 -60.78550 95 ft 15 kts 339°
2026-05-07 11:59 -32.90832 -60.78572 95 ft 15 kts
2026-05-07 11:59 -32.90730 -60.78553 95 ft 14 kts 11°
2026-05-07 11:59 -32.90626 -60.78529 95 ft 15 kts 11°
2026-05-07 11:59 -32.90509 -60.78503 95 ft 18 kts 11°
2026-05-07 12:00 -32.90364 -60.78470 94 ft 24 kts 11°
2026-05-07 12:00 -32.90177 -60.78428 93 ft 30 kts
2026-05-07 12:00 -32.89951 -60.78377 92 ft 35 kts 10°
2026-05-07 12:00 -32.89705 -60.78321 90 ft 36 kts 11°
2026-05-07 12:01 -32.89465 -60.78266 88 ft 24 kts 11°
2026-05-07 12:01 -32.89307 -60.78228 87 ft 23 kts 11°
2026-05-07 12:01 -32.89155 -60.78194 86 ft 16 kts 11°
2026-05-07 12:01 -32.89075 -60.78135 86 ft 9 kts 38°
2026-05-07 12:02 -32.89046 -60.78160 86 ft 6 kts 243°
2026-05-07 12:02 -32.89072 -60.78175 86 ft 0 kts 192°
2026-05-07 12:03 -32.89098 -60.78182 86 ft 17 kts 192°
2026-05-07 12:03 -32.89500 -60.78275 88 ft 97 kts 191°
2026-05-07 12:03 -32.90406 -60.78473 178 ft 154 kts 190°
2026-05-07 12:03 -32.91380 -60.78685 1187 ft 141 kts 195°
2026-05-07 12:04 -32.92259 -60.78920 2141 ft 126 kts 196°
2026-05-07 12:04 -32.93093 -60.79133 2653 ft 129 kts 195°
2026-05-07 12:04 -32.93980 -60.79365 3186 ft 131 kts 193°
2026-05-07 12:04 -32.94944 -60.79540 3527 ft 148 kts 192°
2026-05-07 12:05 -32.96019 -60.79749 3853 ft 165 kts 193°
2026-05-07 12:05 -32.97218 -60.80038 4181 ft 184 kts 194°
2026-05-07 12:05 -32.98515 -60.80344 4663 ft 195 kts 193°
2026-05-07 12:05 -32.99890 -60.80648 5248 ft 203 kts 194°
2026-05-07 12:06 -33.01316 -60.80833 5853 ft 213 kts 179°
2026-05-07 12:06 -33.02725 -60.80193 6512 ft 230 kts 150°
2026-05-07 12:06 -33.03582 -60.79141 7008 ft 242 kts 130°
2026-05-07 12:07 -33.04275 -60.77337 7684 ft 254 kts 110°
2026-05-07 12:07 -33.04368 -60.75216 8372 ft 267 kts 80°
2026-05-07 12:07 -33.03461 -60.73283 9079 ft 274 kts 43°
2026-05-07 12:07 -33.01814 -60.72287 9936 ft 268 kts
2026-05-07 12:08 -32.99989 -60.72131 10849 ft 260 kts 358°
2026-05-07 12:08 -32.98228 -60.71982 11787 ft 255 kts
2026-05-07 12:08 -32.96521 -60.71412 12679 ft 254 kts 14°
2026-05-07 12:08 -32.94886 -60.70712 13558 ft 250 kts 13°
2026-05-07 12:09 -32.93276 -60.70073 14369 ft 247 kts
2026-05-07 12:09 -32.91562 -60.69563 14877 ft 257 kts
2026-05-07 12:09 -32.89788 -60.69102 15392 ft 269 kts
2026-05-07 12:09 -32.87912 -60.68604 15905 ft 280 kts
2026-05-07 12:10 -32.85957 -60.68066 16357 ft 294 kts
2026-05-07 12:10 -32.83919 -60.67499 16822 ft 306 kts
2026-05-07 12:10 -32.81805 -60.66909 17283 ft 318 kts
2026-05-07 12:10 -32.79568 -60.66285 17641 ft 332 kts
2026-05-07 12:11 -32.77301 -60.65653 18122 ft 342 kts
2026-05-07 12:11 -32.74970 -60.65050 18753 ft 345 kts
2026-05-07 12:11 -32.72569 -60.64679 19433 ft 344 kts 358°
2026-05-07 12:11 -32.70209 -60.64592 20119 ft 344 kts 355°
2026-05-07 12:12 -32.67812 -60.64625 20752 ft 346 kts 354°
2026-05-07 12:12 -32.65367 -60.64690 21371 ft 350 kts 354°
2026-05-07 12:12 -32.62926 -60.64748 21976 ft 353 kts 354°
2026-05-07 12:12 -32.60462 -60.64794 22635 ft 354 kts 354°
2026-05-07 12:13 -32.57952 -60.64814 23174 ft 359 kts 356°
2026-05-07 12:13 -32.55443 -60.64499 23505 ft 375 kts
2026-05-07 12:13 -32.52875 -60.63550 23991 ft 390 kts 15°
2026-05-07 12:13 -32.50457 -60.61994 24505 ft 404 kts 25°
2026-05-07 12:14 -32.48214 -60.59872 25118 ft 415 kts 32°
2026-05-07 12:14 -32.46072 -60.57514 25514 ft 422 kts 34°
2026-05-07 12:14 -32.43948 -60.55157 26088 ft 423 kts 33°
2026-05-07 12:14 -32.41745 -60.52805 26397 ft 429 kts 32°
2026-05-07 12:15 -32.39460 -60.50479 26817 ft 432 kts 31°
2026-05-07 12:15 -32.37149 -60.48212 27375 ft 431 kts 30°
2026-05-07 12:15 -32.34821 -60.45993 27800 ft 434 kts 30°
2026-05-07 12:15 -32.32436 -60.43763 28342 ft 435 kts 28°
2026-05-07 12:16 -32.30032 -60.41553 28710 ft 439 kts 29°
2026-05-07 12:16 -32.27632 -60.39368 29130 ft 442 kts 28°
2026-05-07 12:16 -32.25174 -60.37139 29510 ft 445 kts 28°
2026-05-07 12:16 -32.22694 -60.34906 29913 ft 448 kts 27°
2026-05-07 12:17 -32.20211 -60.32666 30249 ft 451 kts 28°
2026-05-07 12:17 -32.17722 -60.30416 30680 ft 450 kts 28°
2026-05-07 12:17 -32.15258 -60.28181 31269 ft 445 kts 28°
2026-05-07 12:17 -32.12813 -60.25958 31892 ft 438 kts 28°
2026-05-07 12:18 -32.10424 -60.23786 32428 ft 432 kts 28°
2026-05-07 12:18 -32.08015 -60.21603 32781 ft 432 kts 27°
2026-05-07 12:18 -32.05603 -60.19432 32635 ft 433 kts 28°
2026-05-07 12:19 -32.00772 -60.15090 32687 ft 439 kts 27°
2026-05-07 12:19 -31.98343 -60.12914 32925 ft 440 kts 27°
2026-05-07 12:19 -31.95931 -60.10745 33456 ft 434 kts 27°
2026-05-07 12:19 -31.93540 -60.08593 33804 ft 433 kts 28°
2026-05-07 12:20 -31.91149 -60.06445 34302 ft 430 kts 28°
2026-05-07 12:20 -31.88769 -60.04311 34615 ft 431 kts 28°
2026-05-07 12:20 -31.86386 -60.02179 35010 ft 429 kts 29°
2026-05-07 12:20 -31.84013 -60.00056 35385 ft 428 kts 28°
2026-05-07 12:21 -31.81631 -59.97930 35767 ft 427 kts 29°
2026-05-07 12:21 -31.79232 -59.95789 36133 ft 426 kts 29°
2026-05-07 12:21 -31.76869 -59.93683 36402 ft 427 kts 29°
2026-05-07 12:21 -31.74491 -59.91566 36675 ft 427 kts 29°
2026-05-07 12:22 -31.72108 -59.89443 36681 ft 426 kts 29°
2026-05-07 12:22 -31.67334 -59.85198 36679 ft 430 kts 29°
2026-05-07 12:23 -31.62596 -59.80985 36690 ft 429 kts 29°
2026-05-07 12:23 -31.57799 -59.76729 36674 ft 431 kts 29°
2026-05-07 12:24 -31.52986 -59.72461 36672 ft 433 kts 29°
2026-05-07 12:24 -31.48156 -59.68185 36675 ft 434 kts 29°
2026-05-07 12:25 -31.43324 -59.63917 36670 ft 436 kts 29°
2026-05-07 12:25 -31.38463 -59.59630 36675 ft 437 kts 29°
2026-05-07 12:26 -31.33608 -59.55348 36674 ft 440 kts 28°
2026-05-07 12:26 -31.28686 -59.51015 36657 ft 442 kts 29°
2026-05-07 12:27 -31.23779 -59.46695 36662 ft 441 kts 29°
2026-05-07 12:27 -31.18824 -59.42343 36652 ft 446 kts 29°
2026-05-07 12:28 -31.13856 -59.37980 36666 ft 443 kts 29°
2026-05-07 12:28 -31.08872 -59.33614 36666 ft 447 kts 28°
2026-05-07 12:29 -31.03902 -59.29257 36662 ft 446 kts 28°
2026-05-07 12:29 -30.98941 -59.24919 36666 ft 447 kts 28°
2026-05-07 12:30 -30.93907 -59.20526 36663 ft 452 kts 28°
2026-05-07 12:30 -30.88889 -59.16155 36662 ft 450 kts 28°
2026-05-07 12:31 -30.83853 -59.11770 36659 ft 450 kts 27°
2026-05-07 12:31 -30.78806 -59.07388 36656 ft 455 kts 27°
2026-05-07 12:32 -30.73734 -59.02985 36653 ft 456 kts 27°
2026-05-07 12:32 -30.68619 -58.98550 36655 ft 456 kts 28°
2026-05-07 12:33 -30.60997 -58.91948 36651 ft 454 kts 27°
2026-05-07 12:33 -30.55919 -58.87561 36646 ft 455 kts 27°
2026-05-07 12:34 -30.50858 -58.83199 36643 ft 459 kts 27°
2026-05-07 12:34 -30.45796 -58.78648 36634 ft 462 kts 30°
2026-05-07 12:35 -30.40886 -58.73810 36630 ft 464 kts 31°
2026-05-07 12:35 -30.36016 -58.68942 36630 ft 462 kts 31°
2026-05-07 12:36 -30.31119 -58.64088 36638 ft 464 kts 31°
2026-05-07 12:36 -30.26187 -58.59234 36643 ft 463 kts 30°
2026-05-07 12:37 -30.21242 -58.54394 36643 ft 466 kts 30°
2026-05-07 12:37 -30.16285 -58.49572 36649 ft 469 kts 30°
2026-05-07 12:38 -30.11297 -58.44723 36649 ft 467 kts 30°
2026-05-07 12:38 -30.06327 -58.39888 36654 ft 466 kts 30°
2026-05-07 12:39 -30.01330 -58.35053 36649 ft 471 kts 30°
2026-05-07 12:39 -29.96332 -58.30205 36644 ft 465 kts 29°
2026-05-07 12:40 -29.91359 -58.25403 36645 ft 468 kts 29°
2026-05-07 12:40 -29.86303 -58.20529 36645 ft 471 kts 29°
2026-05-07 12:41 -29.81300 -58.15699 36646 ft 468 kts 29°
2026-05-07 12:41 -29.76294 -58.10880 36650 ft 471 kts 28°
2026-05-07 12:42 -29.71257 -58.06040 36650 ft 468 kts 28°
2026-05-07 12:42 -29.66225 -58.01214 36649 ft 471 kts 28°
2026-05-07 12:43 -29.61201 -57.96393 36654 ft 468 kts 28°
2026-05-07 12:43 -29.56185 -57.91590 36652 ft 469 kts 28°
2026-05-07 12:44 -29.51159 -57.86787 36665 ft 471 kts 28°
2026-05-07 12:44 -29.46174 -57.82011 36673 ft 464 kts 28°
2026-05-07 12:45 -29.41153 -57.77229 36676 ft 470 kts 28°
2026-05-07 12:45 -29.36153 -57.72472 36682 ft 468 kts 28°
2026-05-07 12:46 -29.31141 -57.67699 36686 ft 468 kts 28°
2026-05-07 12:46 -29.26233 -57.62635 36683 ft 482 kts 37°
2026-05-07 12:47 -29.24223 -57.59524 36681 ft 495 kts 49°
2026-05-07 12:47 -29.22616 -57.55973 36675 ft 506 kts 56°
2026-05-07 12:47 -29.19856 -57.48422 36677 ft 518 kts 60°
2026-05-07 12:48 -29.17284 -57.40735 36677 ft 515 kts 61°
2026-05-07 12:48 -29.14702 -57.33013 36684 ft 515 kts 59°
2026-05-07 12:49 -29.12106 -57.25400 36679 ft 512 kts 59°
2026-05-07 12:49 -29.09480 -57.17822 36676 ft 517 kts 59°
2026-05-07 12:50 -29.06825 -57.10212 36681 ft 513 kts 59°
2026-05-07 12:50 -29.04179 -57.02659 36687 ft 512 kts 59°
2026-05-07 12:51 -29.01522 -56.95086 36690 ft 514 kts 59°
2026-05-07 12:51 -28.98858 -56.87522 36690 ft 515 kts 59°
2026-05-07 12:52 -28.96162 -56.79904 36696 ft 514 kts 59°
2026-05-07 12:52 -28.93508 -56.72373 36710 ft 513 kts 58°
2026-05-07 12:53 -28.90842 -56.64842 36720 ft 515 kts 59°
2026-05-07 12:53 -28.88153 -56.57260 36721 ft 514 kts 59°
2026-05-07 12:54 -28.85484 -56.49743 36721 ft 514 kts 59°
2026-05-07 12:54 -28.82778 -56.42145 36725 ft 513 kts 59°
2026-05-07 12:55 -28.80089 -56.34616 36727 ft 515 kts 58°
2026-05-07 12:55 -28.77412 -56.27110 36727 ft 511 kts 59°
2026-05-07 12:56 -28.74709 -56.19574 36728 ft 513 kts 59°
2026-05-07 12:56 -28.72015 -56.12071 36731 ft 517 kts 59°
2026-05-07 12:57 -28.69370 -56.04500 36741 ft 510 kts 60°
2026-05-07 12:57 -28.66745 -55.96911 36746 ft 513 kts 59°
2026-05-07 12:58 -28.64142 -55.89389 36755 ft 511 kts 59°
2026-05-07 12:58 -28.61518 -55.81860 36761 ft 513 kts 59°
2026-05-07 12:59 -28.58863 -55.74284 36766 ft 514 kts 59°
2026-05-07 12:59 -28.56225 -55.66751 36770 ft 513 kts 59°
2026-05-07 13:00 -28.53569 -55.59192 36774 ft 516 kts 60°
2026-05-07 13:00 -28.50921 -55.51666 36772 ft 513 kts 59°
2026-05-07 13:01 -28.48241 -55.44087 36771 ft 516 kts 60°
2026-05-07 13:01 -28.45570 -55.36530 36777 ft 513 kts 60°
2026-05-07 13:02 -28.42893 -55.28965 36784 ft 513 kts 59°
2026-05-07 13:02 -28.40217 -55.21412 36793 ft 512 kts 60°
2026-05-07 13:03 -28.37535 -55.13896 36798 ft 515 kts 60°
2026-05-07 13:03 -28.34844 -55.06356 36806 ft 514 kts 60°
2026-05-07 13:04 -28.32157 -54.98823 36811 ft 510 kts 60°
2026-05-07 13:04 -28.29478 -54.91333 36818 ft 514 kts 61°
2026-05-07 13:05 -28.26789 -54.83828 36824 ft 511 kts 60°
2026-05-07 13:05 -28.24103 -54.76351 36826 ft 512 kts 60°
2026-05-07 13:06 -28.21397 -54.68845 36830 ft 515 kts 61°
2026-05-07 13:06 -28.18696 -54.61362 36832 ft 513 kts 61°
2026-05-07 13:07 -28.15980 -54.53854 36832 ft 512 kts 61°
2026-05-07 13:07 -28.13280 -54.46408 36840 ft 516 kts 61°
2026-05-07 13:08 -28.10552 -54.38888 36854 ft 512 kts 61°
2026-05-07 13:08 -28.07824 -54.31381 36861 ft 510 kts 60°
2026-05-07 13:09 -28.05120 -54.23986 36870 ft 513 kts 61°
2026-05-07 13:09 -28.02391 -54.16526 36867 ft 511 kts 61°
2026-05-07 13:10 -27.99661 -54.09063 36879 ft 511 kts 61°
2026-05-07 13:10 -27.96939 -54.01619 36888 ft 516 kts 62°
2026-05-07 13:11 -27.94204 -53.94186 36897 ft 509 kts 61°
2026-05-07 13:11 -27.91458 -53.86766 36905 ft 515 kts 61°
2026-05-07 13:12 -27.88708 -53.79334 36910 ft 511 kts 62°
2026-05-07 13:12 -27.85941 -53.71856 36908 ft 512 kts 62°
2026-05-07 13:13 -27.83206 -53.64438 36917 ft 513 kts 61°
2026-05-07 13:13 -27.80467 -53.57029 36929 ft 512 kts 62°
2026-05-07 13:14 -27.77702 -53.49567 36929 ft 512 kts 62°
2026-05-07 13:14 -27.74942 -53.42195 36932 ft 514 kts 62°
2026-05-07 13:15 -27.72168 -53.34775 36937 ft 511 kts 61°
2026-05-07 13:15 -27.69392 -53.27358 36942 ft 510 kts 61°
2026-05-07 13:16 -27.66629 -53.19963 36936 ft 511 kts 62°
2026-05-07 13:16 -27.63855 -53.12577 36939 ft 513 kts 61°
2026-05-07 13:17 -27.60990 -53.05198 36947 ft 510 kts 59°
2026-05-07 13:17 -27.57538 -52.98301 36954 ft 503 kts 50°
2026-05-07 13:18 -27.53451 -52.91964 36957 ft 498 kts 46°
2026-05-07 13:18 -27.49240 -52.85799 36959 ft 498 kts 45°
2026-05-07 13:19 -27.45007 -52.79598 36965 ft 500 kts 46°
2026-05-07 13:19 -27.40808 -52.73386 36966 ft 502 kts 46°
2026-05-07 13:20 -27.36587 -52.67104 36978 ft 500 kts 46°
2026-05-07 13:20 -27.32396 -52.60854 36977 ft 504 kts 46°
2026-05-07 13:21 -27.28189 -52.54579 36977 ft 500 kts 46°
2026-05-07 13:21 -27.23971 -52.48302 36968 ft 503 kts 46°
2026-05-07 13:22 -27.19773 -52.42064 36973 ft 501 kts 46°
2026-05-07 13:22 -27.15582 -52.35837 36983 ft 502 kts 47°
2026-05-07 13:23 -27.11359 -52.29565 37005 ft 502 kts 46°
2026-05-07 13:23 -27.07121 -52.23299 37020 ft 504 kts 46°
2026-05-07 13:24 -27.02884 -52.17043 37039 ft 503 kts 46°
2026-05-07 13:24 -26.98677 -52.10822 37047 ft 501 kts 46°
2026-05-07 13:25 -26.94434 -52.04561 37060 ft 503 kts 46°
2026-05-07 13:25 -26.90217 -51.98355 37059 ft 503 kts 46°
2026-05-07 13:26 -26.85926 -51.92051 37067 ft 504 kts 46°
2026-05-07 13:26 -26.81679 -51.85820 37079 ft 503 kts 47°
2026-05-07 13:27 -26.77459 -51.79636 37100 ft 506 kts 47°
2026-05-07 13:27 -26.73193 -51.73392 37115 ft 506 kts 47°
2026-05-07 13:28 -26.68921 -51.67137 37124 ft 504 kts 47°
2026-05-07 13:28 -26.64649 -51.60895 37120 ft 506 kts 47°
2026-05-07 13:29 -26.60397 -51.54691 37123 ft 505 kts 47°
2026-05-07 13:29 -26.56133 -51.48481 37117 ft 504 kts 47°
2026-05-07 13:30 -26.51879 -51.42297 37110 ft 505 kts 47°
2026-05-07 13:30 -26.47590 -51.36074 37103 ft 504 kts 47°
2026-05-07 13:31 -26.43272 -51.29809 37103 ft 506 kts 47°
2026-05-07 13:31 -26.38966 -51.23574 37098 ft 505 kts 47°
2026-05-07 13:32 -26.34705 -51.17410 37099 ft 504 kts 47°
2026-05-07 13:32 -26.30429 -51.11234 37102 ft 503 kts 47°
2026-05-07 13:33 -26.26136 -51.05048 37099 ft 504 kts 47°
2026-05-07 13:33 -26.21858 -50.98891 37097 ft 503 kts 47°
2026-05-07 13:34 -26.15424 -50.89646 37102 ft 504 kts 47°
2026-05-07 13:35 -26.11138 -50.83492 37107 ft 504 kts 48°
2026-05-07 13:35 -26.06838 -50.77322 37103 ft 504 kts 48°
2026-05-07 13:36 -26.02561 -50.71198 37107 ft 503 kts 48°
2026-05-07 13:36 -25.98272 -50.65065 37109 ft 503 kts 48°